�������l�o���
Date,Time,MP-1(��Sv/h),MP-2(��Sv/h),MP-3(��Sv/h),MP-4(��Sv/h),MP-5(��Sv/h),MP-6(��Sv/h),MP-7(��Sv/h),����,����(m/s),���J
2023/09/03,00:00,0.155,0.141,0.233,0.219,0.217,0.126,0.079,��,1.7,��
2023/09/03,00:10,0.156,0.141,0.231,0.220,0.215,0.126,0.078,��쓌,2.7,��
2023/09/03,00:20,0.155,0.141,0.232,0.218,0.215,0.127,0.079,��쓌,3.3,��
2023/09/03,00:30,0.154,0.141,0.234,0.218,0.217,0.127,0.079,��쓌,2.3,��
2023/09/03,00:40,0.156,0.141,0.231,0.221,0.217,0.126,0.079,��,1.7,�L
2023/09/03,00:50,0.156,0.142,0.232,0.220,0.214,0.126,0.080,��,1.6,��
2023/09/03,01:00,0.154,0.142,0.235,0.218,0.217,0.128,0.079,��,1.5,��
2023/09/03,01:10,0.156,0.142,0.232,0.220,0.217,0.127,0.079,��,1.2,��
2023/09/03,01:20,0.156,0.142,0.231,0.220,0.214,0.126,0.079,��쓌,2.6,��
2023/09/03,01:30,0.155,0.142,0.234,0.217,0.215,0.128,0.080,��,2.0,��
2023/09/03,01:40,0.154,0.141,0.233,0.220,0.217,0.126,0.080,��쐼,1.1,��
2023/09/03,01:50,0.156,0.142,0.231,0.220,0.215,0.126,0.079,�쐼,0.9,��
2023/09/03,02:00,0.156,0.142,0.234,0.219,0.215,0.127,0.080,���쐼,1.0,��
2023/09/03,02:10,0.154,0.141,0.233,0.220,0.218,0.127,0.081,�쐼,1.1,��
2023/09/03,02:20,0.156,0.142,0.232,0.220,0.217,0.127,0.080,���쐼,0.9,��
2023/09/03,02:30,0.156,0.142,0.234,0.218,0.216,0.127,0.079,���k��,0.7,��
2023/09/03,02:40,0.154,0.140,0.233,0.220,0.217,0.128,0.080,���k��,0.6,��
2023/09/03,02:50,0.156,0.142,0.231,0.220,0.217,0.127,0.080,-,CALM,��
2023/09/03,03:00,0.156,0.142,0.233,0.217,0.214,0.127,0.079,�k,1.3,��
2023/09/03,03:10,0.154,0.142,0.232,0.221,0.217,0.127,0.080,�k�k��,1.8,�L
2023/09/03,03:20,0.156,0.143,0.233,0.221,0.217,0.127,0.080,�k�k��,2.4,��
2023/09/03,03:30,0.157,0.142,0.235,0.219,0.215,0.127,0.080,�k,2.9,��
2023/09/03,03:40,0.154,0.141,0.231,0.221,0.217,0.128,0.080,�k�k��,3.2,��
2023/09/03,03:50,0.155,0.142,0.233,0.219,0.218,0.127,0.080,�k�k��,3.9,��
2023/09/03,04:00,0.156,0.142,0.233,0.217,0.215,0.128,0.081,�k�k��,3.4,��
2023/09/03,04:10,0.155,0.142,0.230,0.221,0.217,0.129,0.080,�k�k��,3.0,��
2023/09/03,04:20,0.156,0.143,0.233,0.219,0.217,0.128,0.080,�k�k��,3.4,��
2023/09/03,04:30,0.155,0.141,0.232,0.218,0.215,0.126,0.080,�k�k��,4.1,��
2023/09/03,04:40,0.154,0.141,0.231,0.221,0.216,0.128,0.080,�k�k��,4.3,��
2023/09/03,04:50,0.155,0.142,0.234,0.219,0.218,0.127,0.079,�k�k��,4.2,��
2023/09/03,05:00,0.155,0.141,0.232,0.219,0.215,0.127,0.079,�k�k��,4.0,��
2023/09/03,05:10,0.154,0.142,0.232,0.220,0.216,0.127,0.079,�k�k��,4.0,��
2023/09/03,05:20,0.155,0.142,0.234,0.219,0.217,0.127,0.079,�k�k��,3.8,��
2023/09/03,05:30,0.155,0.141,0.230,0.218,0.215,0.126,0.080,�k�k��,3.0,��
2023/09/03,05:40,0.154,0.142,0.232,0.219,0.214,0.128,0.079,�k�k��,3.1,��
2023/09/03,05:50,0.155,0.141,0.233,0.217,0.217,0.128,0.079,�k,2.9,��
2023/09/03,06:00,0.156,0.141,0.231,0.218,0.217,0.127,0.078,�k�k��,3.0,��
2023/09/03,06:10,0.155,0.141,0.232,0.220,0.214,0.126,0.080,�k,1.9,��
2023/09/03,06:20,0.154,0.142,0.234,0.219,0.215,0.127,0.080,�k�k��,1.9,��
2023/09/03,06:30,0.157,0.142,0.231,0.217,0.217,0.127,0.079,���k��,1.6,��
2023/09/03,06:40,0.156,0.141,0.230,0.219,0.216,0.127,0.079,�k�k��,1.8,��
2023/09/03,06:50,0.155,0.142,0.233,0.220,0.216,0.128,0.080,��,1.3,��
2023/09/03,07:00,0.153,0.142,0.233,0.219,0.214,0.128,0.079,���k��,1.5,��
2023/09/03,07:10,0.154,0.141,0.232,0.217,0.217,0.126,0.079,�k�k��,1.8,��
2023/09/03,07:20,0.157,0.140,0.229,0.217,0.216,0.126,0.079,�k�k��,0.8,�L
2023/09/03,07:30,0.154,0.141,0.230,0.220,0.214,0.127,0.079,�k�k��,1.5,�L
2023/09/03,07:40,0.154,0.142,0.229,0.220,0.214,0.128,0.079,�k,1.9,�L
2023/09/03,07:50,0.153,0.142,0.234,0.218,0.215,0.126,0.079,�k�k��,1.9,��
2023/09/03,08:00,0.152,0.141,0.234,0.219,0.213,0.127,0.079,�k,2.0,��
2023/09/03,08:10,0.154,0.142,0.232,0.218,0.214,0.126,0.079,�k��,1.4,��
2023/09/03,08:20,0.154,0.140,0.232,0.218,0.214,0.126,0.079,�k�k��,1.6,��
2023/09/03,08:30,0.153,0.140,0.232,0.219,0.214,0.127,0.079,�k�k��,2.3,��
2023/09/03,08:40,0.153,0.140,0.231,0.218,0.214,0.126,0.078,�k��,1.4,��
2023/09/03,08:50,0.154,0.140,0.231,0.219,0.215,0.126,0.078,�k��,1.6,��
2023/09/03,09:00,0.154,0.141,0.231,0.218,0.215,0.126,0.079,�k�k��,2.0,��
2023/09/03,09:10,0.156,0.140,0.231,0.219,0.215,0.127,0.078,�k�k��,1.9,��
2023/09/03,09:20,0.154,0.140,0.232,0.220,0.215,0.126,0.079,�k��,1.8,��
2023/09/03,09:30,0.154,0.141,0.231,0.219,0.216,0.127,0.079,�k��,2.0,��
2023/09/03,09:40,0.155,0.141,0.232,0.219,0.216,0.127,0.078,�k�k��,2.3,��
2023/09/03,09:50,0.154,0.141,0.233,0.219,0.215,0.127,0.079,�k��,3.2,��
2023/09/03,10:00,0.154,0.141,0.231,0.220,0.216,0.127,0.079,�k��,2.3,��
2023/09/03,10:10,0.155,0.141,0.233,0.220,0.216,0.127,0.078,�k��,2.7,��
2023/09/03,10:20,0.154,0.140,0.233,0.219,0.216,0.127,0.080,�k��,2.2,��
2023/09/03,10:30,0.155,0.141,0.232,0.219,0.215,0.127,0.080,�k�k��,2.0,��
2023/09/03,10:40,0.156,0.141,0.231,0.219,0.215,0.128,0.079,�k,0.9,��
2023/09/03,10:50,0.155,0.141,0.232,0.220,0.215,0.128,0.078,���k��,0.6,��
2023/09/03,11:00,0.155,0.141,0.232,0.219,0.215,0.127,0.079,�k��,1.6,��
2023/09/03,11:10,0.156,0.141,0.232,0.220,0.216,0.127,0.078,�k��,1.6,��
2023/09/03,11:20,0.155,0.142,0.233,0.220,0.215,0.127,0.080,�k��,1.6,��
2023/09/03,11:30,0.156,0.141,0.231,0.220,0.215,0.127,0.079,���k��,0.7,��
2023/09/03,11:40,0.155,0.142,0.233,0.218,0.216,0.127,0.079,�k��,1.6,��
2023/09/03,11:50,0.154,0.141,0.233,0.219,0.216,0.127,0.079,-,CALM,��
2023/09/03,12:00,0.155,0.142,0.233,0.219,0.215,0.127,0.079,�k�k��,1.2,��
2023/09/03,12:10,0.155,0.143,0.231,0.220,0.217,0.128,0.078,���k��,1.8,��
2023/09/03,12:20,0.155,0.141,0.232,0.219,0.216,0.127,0.079,�k�k��,2.4,��
2023/09/03,12:30,0.155,0.142,0.233,0.219,0.215,0.126,0.079,���k��,1.6,��
2023/09/03,12:40,0.155,0.142,0.233,0.219,0.215,0.127,0.080,�k�k��,2.1,��
2023/09/03,12:50,0.155,0.141,0.233,0.219,0.216,0.126,0.079,�k��,2.4,��
2023/09/03,13:00,0.156,0.141,0.232,0.219,0.215,0.127,0.079,�k�k��,2.1,��
2023/09/03,13:10,0.155,0.142,0.233,0.219,0.215,0.126,0.079,�k�k��,2.8,��
2023/09/03,13:20,0.156,0.142,0.232,0.219,0.216,0.128,0.079,�k�k��,2.2,��
2023/09/03,13:30,0.155,0.142,0.231,0.219,0.216,0.128,0.079,�k,2.4,��
2023/09/03,13:40,0.155,0.142,0.231,0.219,0.214,0.128,0.079,�k,3.3,��
2023/09/03,13:50,0.156,0.141,0.231,0.218,0.215,0.128,0.079,�k,3.0,��
2023/09/03,14:00,0.155,0.142,0.231,0.218,0.216,0.127,0.079,�k�k��,3.1,��
2023/09/03,14:10,0.155,0.141,0.232,0.219,0.215,0.127,0.079,�k,3.8,��
2023/09/03,14:20,0.155,0.141,0.230,0.219,0.215,0.127,0.079,�k,3.8,��
2023/09/03,14:30,0.154,0.141,0.230,0.220,0.215,0.127,0.078,�k�k��,2.6,��
2023/09/03,14:40,0.155,0.141,0.230,0.219,0.215,0.126,0.078,�k�k��,2.7,��
2023/09/03,14:50,0.154,0.141,0.229,0.218,0.214,0.125,0.078,�k,2.3,��
2023/09/03,15:00,0.155,0.140,0.230,0.217,0.214,0.127,0.078,�k,3.1,��
2023/09/03,15:10,0.154,0.140,0.230,0.216,0.214,0.126,0.078,�k,2.8,��
2023/09/03,15:20,0.152,0.140,0.229,0.217,0.214,0.126,0.079,�k,2.4,��
2023/09/03,15:30,0.153,0.140,0.229,0.217,0.213,0.126,0.078,�k,2.8,��
2023/09/03,15:40,0.152,0.139,0.230,0.216,0.212,0.126,0.078,�k,2.5,�L
2023/09/03,15:50,0.153,0.140,0.231,0.217,0.215,0.125,0.078,�k�k��,2.4,�L
2023/09/03,16:00,0.152,0.140,0.229,0.218,0.214,0.125,0.078,�k�k��,2.5,�L
2023/09/03,16:10,0.153,0.140,0.230,0.217,0.213,0.127,0.077,�k�k��,2.0,��
2023/09/03,16:20,0.154,0.140,0.230,0.218,0.214,0.126,0.078,�k�k��,2.4,�L
2023/09/03,16:30,0.154,0.140,0.231,0.216,0.213,0.126,0.078,�k�k��,1.8,�L
2023/09/03,16:40,0.153,0.140,0.231,0.217,0.214,0.126,0.078,�k�k��,2.5,�L
2023/09/03,16:50,0.152,0.140,0.229,0.216,0.212,0.125,0.077,�k�k��,2.0,��
2023/09/03,17:00,0.151,0.139,0.230,0.216,0.212,0.125,0.079,�k�k��,2.3,��
2023/09/03,17:10,0.156,0.141,0.229,0.217,0.214,0.125,0.079,�k�k��,1.7,��
2023/09/03,17:20,0.155,0.142,0.229,0.220,0.218,0.126,0.079,�k�k��,2.9,�L
2023/09/03,17:30,0.155,0.141,0.233,0.218,0.215,0.126,0.078,�k��,3.2,�L
2023/09/03,17:40,0.153,0.141,0.232,0.216,0.212,0.127,0.077,�k�k��,2.4,�L
2023/09/03,17:50,0.153,0.140,0.231,0.214,0.212,0.126,0.078,�k��,3.0,��
2023/09/03,18:00,0.153,0.140,0.229,0.213,0.212,0.125,0.079,�k��,2.9,��
2023/09/03,18:10,0.154,0.142,0.229,0.218,0.214,0.124,0.078,�k�k��,2.9,��
2023/09/03,18:20,0.155,0.141,0.231,0.217,0.214,0.125,0.078,�k��,3.3,�L
2023/09/03,18:30,0.153,0.140,0.232,0.216,0.211,0.126,0.077,�k�k��,2.7,�L
2023/09/03,18:40,0.152,0.139,0.231,0.214,0.211,0.125,0.078,�k��,2.4,�L
2023/09/03,18:50,0.154,0.140,0.228,0.215,0.212,0.124,0.078,�k�k��,0.9,�L
2023/09/03,19:00,0.156,0.141,0.230,0.217,0.215,0.125,0.078,�k�k��,1.7,��
2023/09/03,19:10,0.155,0.140,0.232,0.216,0.212,0.125,0.077,�k��,2.4,��
2023/09/03,19:20,0.154,0.139,0.231,0.215,0.212,0.125,0.077,�k,2.2,��
2023/09/03,19:30,0.153,0.139,0.230,0.214,0.212,0.125,0.077,�k�k��,3.3,��
2023/09/03,19:40,0.153,0.141,0.229,0.217,0.211,0.124,0.078,�k��,2.2,��
2023/09/03,19:50,0.155,0.141,0.228,0.216,0.214,0.124,0.077,�k�k��,3.5,��
2023/09/03,20:00,0.155,0.141,0.232,0.215,0.212,0.125,0.076,�k�k��,2.9,��
2023/09/03,20:10,0.153,0.140,0.231,0.214,0.211,0.126,0.077,�k�k��,2.1,��
2023/09/03,20:20,0.152,0.140,0.231,0.215,0.211,0.125,0.077,�k�k��,2.7,��
2023/09/03,20:30,0.154,0.142,0.229,0.218,0.213,0.124,0.077,�k�k��,2.9,��
2023/09/03,20:40,0.156,0.141,0.231,0.217,0.215,0.125,0.078,�k�k��,3.5,��
2023/09/03,20:50,0.155,0.140,0.232,0.215,0.212,0.125,0.078,�k�k��,3.4,��
2023/09/03,21:00,0.154,0.140,0.230,0.213,0.210,0.125,0.078,�k�k��,3.5,��
2023/09/03,21:10,0.152,0.142,0.229,0.217,0.213,0.125,0.078,�k�k��,3.0,��
2023/09/03,21:20,0.154,0.141,0.230,0.217,0.214,0.124,0.078,�k�k��,3.0,��
2023/09/03,21:30,0.156,0.141,0.233,0.215,0.212,0.126,0.078,�k�k��,2.3,��
2023/09/03,21:40,0.154,0.140,0.231,0.215,0.211,0.126,0.078,�k�k��,2.1,��
2023/09/03,21:50,0.153,0.141,0.230,0.217,0.213,0.125,0.078,�k,2.0,��
2023/09/03,22:00,0.155,0.141,0.232,0.216,0.213,0.125,0.077,�k,1.8,��
2023/09/03,22:10,0.156,0.140,0.232,0.213,0.211,0.125,0.078,�k,2.3,��
2023/09/03,22:20,0.153,0.141,0.229,0.215,0.211,0.126,0.077,�k�k��,1.9,��
2023/09/03,22:30,0.153,0.142,0.231,0.216,0.213,0.125,0.078,�k�k��,1.9,��
2023/09/03,22:40,0.155,0.141,0.233,0.215,0.214,0.124,0.077,�k�k��,2.1,��
2023/09/03,22:50,0.156,0.140,0.231,0.214,0.212,0.125,0.077,�k�k��,2.5,��
2023/09/03,23:00,0.154,0.141,0.229,0.217,0.213,0.126,0.078,�k�k��,2.9,�L
2023/09/03,23:10,0.153,0.142,0.230,0.216,0.214,0.126,0.078,�k�k��,2.8,��
2023/09/03,23:20,0.155,0.141,0.233,0.216,0.213,0.125,0.077,�k�k��,3.4,��
2023/09/03,23:30,0.155,0.140,0.230,0.215,0.212,0.126,0.078,�k�k��,3.3,��
2023/09/03,23:40,0.154,0.142,0.229,0.217,0.214,0.126,0.078,�k�k��,3.7,��
2023/09/03,23:50,0.154,0.140,0.232,0.216,0.214,0.125,0.077,�k�k��,4.0,��
